Regional Weather Roundup
Issued by NWS

Home | Current Version | Previous Version | Text Only | Print | Product List | Glossary Off
Versions: 1 2 3 4 5 6 7 8 9 10 11 12 13 14 15 16 17 18 19 20 21 22 23 24 25 26 27 28 29 30 31 32 33 34 35 36 37 38 39 40 41 42 43 44 45 46 47 48 49 50

000
ASUS45 KSLC 261510
RWRUT

UTAH REGIONAL WEATHER ROUNDUP
NATIONAL WEATHER SERVICE SALT LAKE CITY UT
900 AM MDT WED APR 26 2017

UTZ001>011-023>025-261600-

NORTHERN UTAH

CITY           SKY/WX    TMP DP  RH WIND       PRES   REMARKS
BRIGHAM CITY   CLOUDY    48  33  55 CALM      29.91R
HILL AFB       CLOUDY    46  33  61 S7        29.91R
LOGAN          LGT RAIN  46  37  71 S5        29.90R
OGDEN          CLOUDY    46  35  65 SW5       29.91R
SALT LAKE CITY CLOUDY    47  37  68 SE12      29.91S
TOOELE VALLEY  CLOUDY    43  34  70 S12       29.91F
WENDOVER       CLOUDY    51  30  44 NW7       29.90
WEST JORDAN    CLOUDY    47  43  85 S10       29.93S

$$

UTZ011>015-024>027-261600-

CENTRAL/NORTHEAST UTAH

CITY           SKY/WX    TMP DP  RH WIND       PRES   REMARKS
PROVO AIRPORT  PTSUNNY   43  36  75 SE9       29.96R
MOAB/CANYONLAN SUNNY     49  32  52 NW9       29.92R
DELTA          CLOUDY    41  32  70 CALM      29.96R
PRICE          PTSUNNY   41  28  60 S5        29.92F
ROOSEVELT      PTSUNNY   43  32  65 CALM      29.92F
VERNAL         CLOUDY    43  29  57 VRB5      29.91F

$$

UTZ013>016-019>022-027-261600-

SOUTHERN UTAH

CITY           SKY/WX    TMP DP  RH WIND       PRES   REMARKS
BRYCE CANYON   SUNNY     38  22  52 VRB3      29.98F
CEDAR CITY     MOSUNNY   39  26  59 NE5       29.96R
MILFORD        MOSUNNY   40  26  57 S12       29.95S WCI  33
ST GEORGE      CLOUDY    51  23  33 CALM      29.96R
HANKSVILLE     PTSUNNY   46  25  42 CALM      29.96S
BLANDING       SUNNY     45  24  43 CALM      30.02R

$$

REGIONAL REPORTS     COLORADO/ARIZONA

CITY           SKY/WX    TMP DP  RH WIND       PRES   REMARKS
CRAIG, CO      CLOUDY    37  30  75 E5        29.91F WCI  33
GRAND JUNCTION CLOUDY    44  37  76 SE5       29.93S
RIFLE, CO      CLOUDY    40  34  79 CALM      29.94S
MONTROSE, CO   SUNNY     43  34  70 VRB3      29.97R
CORTEZ, CO     SUNNY     44  29  55 CALM      29.94S
COLORADO CITY    N/A     50  23  34 E3        30.00R
PAGE, AZ       SUNNY     52  21  29 VRB5      29.94R
GRAND CANYON   SUNNY     44  17  33 SW3       30.01S
KINGMAN, AZ    MOSUNNY   59  20  22 CALM      29.93S
FLAGSTAFF, AZ  SUNNY     44  15  31 S3        30.01R

$$

REGIONAL REPORTS    NEVADA/IDAHO/WYOMING

CITY           SKY/WX    TMP DP  RH WIND       PRES   REMARKS
LAS VEGAS, NV  MOSUNNY   65  20  17 N3        29.89R
ELY, NY        CLOUDY    40  28  62 S3        29.98R
ELKO, NV       CLOUDY    45  38  76 S7        29.92F
POCATELLO, ID  CLOUDY    44  35  70 SW18      29.86F
BURLEY, ID     CLOUDY    45  36  70 SW10      29.86F
FORT BRIDGER,  CLOUDY    38  29  70 W21G26    29.91S WCI  28
EVANSTON, WY   CLOUDY    36  29  75 W12       29.90R WCI  28
ROCK SPRINGS,  LGT SNOW  36  30  79 W17G25    29.87S WCI  26
KEMMERER, WY   FLURRIES  32  32 100 W14       29.87F WCI  22

$$



USA.gov is the U.S. government's official web portal to all federal, state and local government web resources and services.